Temperature
14 14 14 14 14 14 14 14 14 14 14 14 14 14 14 14 14 14 14 15 15 15 15 14 14 14 14 14 14 14 14 13 13 13 13 13 13 13 13 13 12 12 12
14 14 14 14 14 14 14 14 14 14 14 14 14 14 14 14 14 14 14 14 15 15 15 14 14 14 14 14 14 13 13 13 13 13 13 13 13 13 12 12 12 12 12
14 14 14 14 14 14 14 14 14 14 13 14 14 14 14 14 14 14 14 14 14 14 14 14 14 14 14 14 13 13 13 13 13 13 13 13 13 12 12 12 12 12 12
13 14 14 14 14 14 14 14 13 13 13 13 13 13 13 13 14 14 14 14 14 14 14 14 14 14 14 14 13 13 13 13 13 13 13 13 12 12 12 12 12 11 11
13 13 13 13 13 13 13 13 13 13 13 13 13 13 13 13 13 13 13 13 13 14 14 14 14 14 13 13 13 13 13 13 13 13 13 12 12 12 12 12 11 11 11
13 13 13 13 13 13 13 13 13 13 13 13 13 13 13 13 13 13 13 13 13 13 13 13 13 13 13 13 13 13 13 13 12 12 12 12 12 12 12 11 11 11 11
12 12 12 12 12 13 13 13 13 12 12 12 12 12 12 12 12 12 12 12 12 13 13 13 13 13 13 13 13 13 13 12 12 12 12 12 12 12 11 11 11 11 11
12 12 12 12 12 12 12 12 12 12 12 12 11 11 11 11 12 12 12 12 12 12 12 12 12 12 12 12 12 12 12 12 12 12 12 11 11 11 11 11 11 11 11
11 11 11 11 12 12 12 12 12 12 12 11 11 11 11 12 11 11 11 11 11 11 11 12 12 12 12 12 12 12 12 12 12 11 11 11 11 11 11 11 11 10 10
10 11 11 11 11 11 11 11 11 11 11 11 11 11 11 11 11 11 11 11 11 11 11 11 11 11 11 11 11 12 11 11 11 11 11 10 10 10 10 10 10 10 10
10 10 10 11 11 11 11 11 11 11 11 11 10 10 10 10 10 10 10 10 10 10 11 11 11 11 11 11 11 11 11 11 11 11 10 10 10 10 10 10 10 10 10
10 10 10 10 10 10 10 10 10 10 10 10 10 10 10 10 10 10 10 10 10 10 10 10 10 10 10 10 10 10 10 10 10 10 10 9 9 9 9 9 9 9 9
9 9 9 10 10 10 10 10 10 10 10 10 10 10 9 9 9 10 9 9 9 9 9 10 10 10 10 10 10 10 10 10 10 10 9 9 9 9 9 9 9 9 9
9 9 9 9 9 9 9 9 9 9 9 9 9 9 9 9 9 9 9 9 8 8 9 9 9 9 9 9 9 9 9 9 9 9 9 9 8 8 8 8 8 8 8
8 8 8 8 8 8 8 9 9 9 9 9 9 9 9 9 9 9 9 9 8 8 8 8 8 9 8 9 9 8 8 8 8 8 8 8 8 8 8 8 7 7 7
7 7 8 8 8 8 8 8 8 8 8 8 8 8 8 8 8 8 8 8 8 8 7 7 8 8 8 8 8 8 8 8 8 8 8 7 7 7 7 7 7 7 7
7 7 7 7 7 7 7 7 8 8 8 8 8 8 7 7 7 7 7 7 7 7 7 7 7 7 7 7 7 7 7 7 7 7 7 7 7 7 7 7 7 6 6
6 6 6 6 7 7 7 7 7 7 7 7 7 7 7 7 6 6 6 6 6 6 6 6 7 7 7 7 7 7 7 6 7 7 7 7 7 7 6 6 6 6 6
5 6 6 6 6 6 6 6 6 6 6 6 7 6 6 6 6 6 6 6 6 6 6 6 6 6 6 6 6 6 6 6 6 6 6 6 6 6 6 6 6 5 5
5 5 5 5 5 6 6 6 6 6 6 6 6 6 6 6 5 5 5 5 5 5 5 5 5 5 5 5 5 5 5 5 5 5 5 5 5 5 5 5 5 5 5
5 5 5 5 5 5 5 5 5 5 5 5 5 5 5 5 5 5 4 4 4 4 4 4 4 5 5 4 4 5 5 5 5 5 5 5 5 5 4 4 4 4 4
4 4 4 4 4 4 4 4 4 4 4 4 4 4 4 4 4 4 4 4 4 4 3 3 3 4 4 4 4 4 4 4 4 4 4 4 4 4 4 4 4 4 4
3 3 3 3 3 3 3 3 4 3 3 3 3 3 3 3 3 3 3 4 4 3 3 3 3 3 4 4 4 4 4 4 4 4 4 3 3 3 3 3 3 3 3
3 3 3 3 3 3 3 3 3 3 3 3 3 3 3 3 3 3 3 3 3 3 3 3 3 3 3 3 4 4 4 3 3 3 3 3 3 3 3 3 3 2 3
2 2 2 2 2 2 2 2 2 2 2 2 2 2 2 2 2 2 2 2 2 2 2 2 2 2 3 3 3 3 3 2 2 2 2 2 2 2 2 2 2 2 2
1 1 1 1 1 1 1 2 1 1 1 1 1 2 2 1 1 1 1 1 1 1 1 2 2 2 2 2 2 2 2 2 2 2 2 2 2 1 1 1 1 1 1
Wind_Speed
8 8 8 10 11 12 12 11 11 11 11 11 11 10 9 10 9 8 7 11 11 11 12 12 11 11 11 11 11 10 10 10 10 9 9 9 9 9 8 9 9 9 9
9 8 9 9 10 11 12 11 11 10 9 9 9 10 10 10 10 9 8 10 12 12 12 13 13 13 12 12 12 11 11 11 11 11 11 10 10 10 10 10 10 11 11
10 9 9 9 9 12 12 10 11 10 9 9 10 10 9 10 10 10 10 9 10 12 13 13 13 13 13 13 13 12 12 11 11 11 11 11 11 11 11 11 11 11 11
12 9 8 9 10 10 9 9 9 9 9 9 9 8 8 8 10 10 10 10 10 10 12 13 13 13 13 13 13 12 12 12 12 12 12 12 12 12 11 11 11 11 11
12 9 8 8 10 8 8 9 9 9 9 9 9 8 8 9 9 9 10 11 10 10 10 11 12 12 12 12 13 12 12 12 12 12 12 12 12 12 13 12 12 12 11
11 9 8 9 9 8 9 9 10 9 9 9 8 8 9 9 9 9 10 10 10 10 10 10 10 11 12 13 13 13 12 12 12 13 13 13 13 14 14 13 13 12 11
11 10 9 9 9 9 10 11 9 10 9 7 7 6 7 9 9 8 8 8 9 10 10 10 10 9 9 11 12 13 13 13 13 13 13 13 13 13 14 14 14 13 12
10 9 10 9 10 9 10 10 10 8 7 7 6 5 5 7 8 9 8 8 9 8 9 10 11 10 9 9 9 11 13 14 14 14 14 14 14 14 14 14 13 13 13
10 10 10 9 9 10 10 11 11 11 9 9 8 6 5 6 4 7 9 9 9 8 8 9 10 11 11 10 9 10 12 13 14 15 15 15 14 14 14 13 13 12 12
9 9 9 9 9 9 9 10 11 10 10 9 8 8 7 4 5 4 7 9 10 10 10 8 9 10 11 10 10 11 12 14 15 16 17 16 16 15 15 13 12 12 12
7 8 9 8 9 9 9 10 10 10 9 10 8 8 8 7 8 6 8 8 8 9 9 9 8 9 11 12 11 12 13 14 16 17 17 16 16 15 15 14 13 13 12
6 7 7 8 8 8 9 9 9 10 10 10 10 9 8 8 8 8 9 9 9 8 9 8 9 8 9 11 12 13 13 15 16 17 17 16 16 15 15 15 15 14 12
4 5 6 6 7 7 8 8 8 9 10 10 11 10 9 9 8 8 8 8 8 6 7 8 8 8 8 10 11 12 14 15 16 17 17 16 15 15 15 15 14 14 13
4 5 5 5 6 7 8 7 7 7 7 9 10 10 8 9 8 8 8 7 7 7 7 8 7 8 8 9 11 13 13 15 16 16 16 16 15 15 15 14 14 14 13
3 5 5 5 6 6 7 7 6 7 7 8 8 8 8 7 7 7 7 7 8 9 10 9 6 7 7 8 10 11 12 13 15 16 16 15 15 14 13 13 13 13 12
3 4 4 4 5 6 6 6 6 6 6 6 6 8 8 7 7 6 6 7 8 9 10 7 6 6 7 7 9 10 11 12 14 16 16 15 15 14 13 13 12 12 10
2 3 3 4 5 4 5 6 7 7 7 7 7 8 9 8 7 7 6 6 7 7 10 8 6 6 7 8 7 8 9 9 10 14 15 15 15 14 13 13 12 12 11
1 1 2 3 3 4 4 4 6 6 7 8 8 8 9 7 8 7 7 7 7 7 8 9 7 6 8 8 8 8 7 8 9 12 14 15 15 14 13 13 12 12 11
1 1 0 1 2 2 3 3 4 4 5 6 7 8 8 8 8 7 8 8 7 6 6 7 7 6 6 5 6 6 7 6 7 8 11 12 13 12 12 12 12 11 11
2 1 1 1 1 1 2 3 4 4 5 5 6 6 7 7 8 8 8 8 7 7 6 6 6 6 6 5 5 5 6 5 5 5 6 7 9 10 11 11 11 11 10
4 3 2 2 1 1 1 2 3 4 5 7 7 7 7 7 8 7 7 7 7 7 6 6 6 6 6 5 6 5 6 5 6 4 4 5 6 6 8 10 11 10 10
6 5 4 2 2 1 3 4 4 4 5 6 7 7 7 8 7 8 8 8 8 8 8 8 7 8 9 8 7 6 5 5 6 4 5 6 5 6 6 7 9 11 10
6 5 4 3 2 3 4 4 5 5 5 6 6 6 5 6 7 8 8 8 9 9 9 8 8 8 9 8 8 8 7 7 6 4 4 5 4 5 4 6 9 11 11
5 4 4 4 3 3 4 4 5 4 4 4 5 5 6 6 6 7 8 8 8 8 8 8 8 8 8 8 8 8 7 4 3 2 3 4 3 3 3 4 8 9 10
5 4 4 5 4 3 4 5 5 4 4 5 5 5 6 6 7 8 7 8 8 7 6 8 8 8 9 8 6 4 4 4 3 3 2 2 2 1 1 2 4 7 8
5 4 4 4 4 4 5 5 5 3 4 5 5 5 5 6 8 8 7 7 7 7 6 6 6 5 5 5 6 6 6 5 2 2 3 3 2 2 2 1 2 3 4
Wind_Direction
200 198 196 191 191 192 192 195 198 197 200 203 206 209 210 214 214 213 204 202 215 222 223 223 223 225 228 232 234 235 235 237 239 240 244 249 251 256 262 268 272 274 276
200 199 199 196 194 194 195 198 200 199 203 206 210 212 214 216 220 219 219 208 214 221 225 226 228 230 234 237 239 239 240 241 244 246 249 249 251 254 258 265 270 271 272
201 199 199 197 197 196 196 199 201 202 205 208 213 215 218 220 221 223 223 222 220 220 225 229 232 235 237 240 242 243 243 243 244 247 250 250 252 255 258 263 266 269 267
202 200 201 199 198 196 197 199 200 201 204 209 214 215 220 221 226 227 226 225 225 225 224 226 232 235 238 241 243 244 245 247 247 247 248 251 253 255 258 262 264 267 269
203 202 202 200 197 197 200 200 200 202 205 209 214 218 222 224 227 228 231 229 228 229 230 220 223 231 236 242 244 246 246 249 248 248 251 253 255 257 258 261 263 266 267
202 203 203 205 199 200 202 203 203 204 209 209 212 220 223 224 227 228 231 230 227 227 230 230 228 229 231 238 242 244 248 251 251 252 255 258 258 259 260 260 261 262 263
204 205 207 205 205 205 206 206 205 204 207 204 208 219 229 229 230 228 229 231 228 227 230 232 234 235 233 231 236 242 247 252 253 255 257 259 261 262 261 260 260 261 261
209 207 208 207 209 209 208 208 204 203 202 197 201 202 221 226 225 228 227 229 232 228 230 232 234 236 239 239 233 234 243 251 254 256 258 259 260 261 261 261 261 259 258
212 210 210 209 211 212 211 208 208 207 203 199 202 204 210 224 228 223 225 228 230 231 234 234 235 237 239 242 243 237 239 247 254 257 259 259 260 260 260 257 258 259 261
215 212 213 213 215 214 214 213 212 213 208 203 204 216 226 219 216 226 223 227 232 236 237 238 238 238 240 243 245 246 239 242 251 256 259 258 259 259 257 254 253 255 259
219 215 213 214 218 220 218 216 213 213 215 214 208 209 219 223 222 225 239 238 240 238 239 239 239 237 237 239 242 242 238 243 250 255 257 257 257 258 257 256 254 255 257
219 218 216 216 221 225 222 219 217 215 217 219 215 213 215 215 216 223 235 240 246 247 242 240 239 237 236 237 241 240 240 245 249 253 255 256 256 256 258 258 257 256 256
223 219 218 217 219 226 224 221 222 223 221 219 219 220 222 226 226 227 235 241 251 263 254 244 239 237 235 237 239 235 240 243 247 251 253 254 255 255 256 256 255 255 256
226 222 218 219 220 224 223 218 220 224 224 222 222 222 226 229 228 228 231 234 245 256 256 255 247 239 238 238 238 233 242 239 241 245 249 250 251 252 251 252 253 253 252
228 226 220 219 223 228 227 220 221 224 226 225 227 226 230 233 234 235 236 231 232 248 252 253 253 245 243 243 237 240 245 240 238 242 245 245 248 247 243 244 249 252 247
230 228 228 223 226 231 227 223 223 225 228 230 232 233 234 237 239 241 241 240 238 243 252 252 260 261 249 250 243 244 247 244 239 240 241 240 241 239 237 236 240 239 234
234 224 230 231 227 233 232 224 224 222 228 231 233 235 235 238 239 239 244 247 247 248 255 265 273 267 253 250 250 249 248 246 243 235 236 237 236 234 232 231 231 229 226
269 234 229 240 237 237 236 233 233 231 231 235 237 238 240 240 244 244 242 247 251 255 259 266 272 268 261 250 249 252 253 249 247 237 233 235 234 232 228 223 219 222 221
360 4 238 256 247 236 233 238 241 244 245 246 246 242 242 239 243 248 250 249 251 257 259 263 274 275 275 261 258 260 256 258 256 246 234 233 231 228 221 217 216 219 216
12 6 359 269 278 260 256 256 251 250 253 255 254 253 251 246 246 248 249 252 256 258 261 259 265 272 280 273 260 256 262 263 260 252 240 236 229 224 223 220 216 215 211
16 26 26 17 0 356 335 308 277 264 259 257 255 255 254 252 254 254 255 255 258 257 260 261 261 269 269 265 256 253 253 260 264 251 243 240 228 225 221 219 214 213 212
16 22 19 6 355 341 347 336 309 272 263 260 259 258 255 247 251 257 260 261 258 256 259 258 260 258 258 258 252 250 248 257 260 234 233 242 229 227 224 217 209 207 209
12 16 6 355 339 342 348 337 325 285 270 265 264 266 267 263 262 259 262 262 258 258 255 254 259 260 259 257 248 246 243 249 259 231 222 237 227 231 229 217 203 203 205
2 3 357 345 336 336 343 331 320 286 284 288 287 286 282 274 270 273 269 265 264 262 262 259 260 263 264 259 246 242 245 256 296 251 221 229 224 234 235 216 197 199 201
352 349 343 340 330 325 341 331 321 293 295 296 294 292 289 290 292 293 274 268 271 276 274 274 277 276 272 265 251 236 223 225 264 253 227 215 206 225 231 215 195 193 194
341 337 334 330 323 318 331 332 324 295 295 295 293 289 289 297 304 298 279 272 270 280 287 293 294 290 279 255 237 226 217 216 240 235 202 182 172 158 166 186 188 185 184
Height
1513 1516 1519 1521 1524 1526 1528 1531 1533 1535 1536 1538 1539 1540 1541 1542 1543 1544 1544 1544 1545 1546 1546 1546 1546 1547 1547 1547 1546 1546 1546 1546 1545 1544 1544 1543 1542 1541 1540 1539 1538 1537 1535
1509 1512 1515 1517 1519 1522 1524 1527 1529 1531 1533 1535 1536 1537 1539 1540 1540 1541 1542 1542 1542 1543 1543 1544 1544 1544 1544 1544 1544 1544 1543 1543 1542 1542 1541 1541 1540 1539 1538 1537 1535 1534 1533
1505 1507 1510 1512 1515 1518 1520 1523 1525 1527 1529 1531 1532 1534 1535 1537 1537 1538 1539 1539 1540 1540 1540 1540 1541 1541 1541 1541 1541 1540 1540 1540 1539 1539 1538 1538 1537 1536 1535 1534 1532 1531 1530
1500 1502 1505 1507 1510 1513 1516 1518 1521 1523 1525 1526 1528 1530 1532 1533 1534 1535 1535 1536 1536 1536 1536 1537 1537 1537 1537 1537 1537 1537 1537 1536 1536 1535 1534 1534 1533 1532 1531 1530 1529 1528 1527
1494 1497 1500 1503 1505 1508 1511 1513 1516 1518 1520 1522 1524 1525 1527 1528 1529 1530 1531 1532 1532 1532 1533 1533 1533 1533 1533 1533 1533 1533 1533 1532 1532 1531 1530 1530 1529 1528 1527 1526 1525 1524 1523
1489 1492 1495 1498 1500 1503 1505 1508 1510 1513 1515 1517 1519 1521 1522 1524 1525 1526 1527 1528 1528 1528 1529 1529 1529 1529 1529 1529 1529 1528 1528 1528 1527 1526 1526 1525 1524 1523 1522 1521 1521 1519 1518
1484 1487 1490 1492 1495 1498 1500 1503 1505 1508 1510 1513 1515 1516 1517 1518 1520 1521 1522 1523 1523 1523 1524 1524 1525 1525 1524 1524 1524 1524 1523 1523 1522 1522 1521 1520 1519 1518 1517 1516 1516 1515 1514
1478 1481 1484 1487 1490 1492 1495 1497 1500 1502 1504 1507 1509 1511 1512 1514 1513 1515 1516 1517 1518 1518 1518 1519 1519 1519 1519 1519 1518 1518 1518 1518 1517 1516 1516 1515 1514 1513 1512 1511 1510 1509 1509
1473 1476 1479 1482 1484 1487 1489 1491 1494 1496 1498 1501 1503 1505 1507 1506 1508 1509 1510 1511 1512 1513 1513 1513 1513 1513 1514 1513 1513 1512 1512 1512 1511 1510 1510 1509 1508 1507 1507 1506 1505 1504 1503
1467 1471 1473 1476 1479 1481 1484 1486 1489 1491 1493 1494 1497 1499 1501 1501 1503 1503 1504 1505 1506 1506 1507 1507 1507 1507 1507 1507 1507 1506 1506 1506 1505 1504 1504 1503 1502 1502 1501 1500 1499 1498 1498
1462 1465 1467 1470 1473 1476 1478 1481 1483 1485 1487 1489 1490 1492 1494 1495 1497 1498 1497 1498 1499 1499 1500 1500 1500 1501 1501 1500 1500 1500 1500 1499 1499 1498 1497 1497 1496 1495 1494 1494 1493 1492 1492
1457 1459 1462 1465 1468 1470 1472 1475 1477 1479 1481 1483 1485 1486 1487 1488 1490 1491 1491 1491 1491 1491 1492 1493 1493 1493 1493 1493 1493 1493 1493 1493 1492 1491 1491 1490 1489 1488 1488 1487 1487 1486 1485
1452 1454 1457 1460 1462 1465 1467 1469 1471 1473 1475 1476 1478 1479 1480 1482 1484 1485 1486 1485 1485 1484 1485 1485 1486 1486 1486 1486 1486 1486 1485 1485 1485 1484 1483 1483 1482 1481 1481 1480 1480 1479 1479
1448 1450 1452 1454 1457 1459 1461 1462 1465 1466 1468 1469 1471 1472 1474 1475 1477 1478 1479 1479 1478 1477 1476 1477 1478 1478 1479 1478 1478 1478 1477 1477 1477 1476 1476 1475 1474 1474 1473 1473 1472 1472 1472
1443 1445 1447 1449 1451 1453 1455 1457 1458 1460 1462 1463 1464 1466 1467 1468 1470 1471 1472 1473 1473 1470 1468 1468 1470 1470 1470 1470 1470 1470 1470 1469 1469 1468 1468 1467 1467 1466 1466 1465 1465 1465 1465
1439 1440 1442 1444 1446 1448 1449 1451 1453 1454 1456 1457 1458 1459 1460 1461 1463 1464 1465 1465 1465 1465 1462 1461 1461 1462 1462 1462 1463 1463 1462 1461 1461 1460 1460 1459 1459 1459 1458 1458 1458 1458 1458
1435 1436 1438 1439 1441 1443 1444 1446 1447 1448 1450 1451 1452 1452 1453 1454 1455 1456 1457 1458 1458 1458 1456 1453 1454 1454 1454 1454 1454 1454 1454 1453 1453 1452 1452 1451 1451 1451 1451 1450 1451 1451 1451
1431 1432 1433 1435 1436 1438 1439 1440 1441 1443 1444 1444 1445 1446 1447 1448 1448 1449 1449 1450 1450 1450 1450 1447 1446 1446 1446 1446 1446 1446 1446 1445 1445 1444 1443 1443 1443 1443 1443 1443 1444 1444 1445
1427 1428 1429 1430 1431 1432 1434 1435 1435 1436 1437 1439 1439 1440 1440 1441 1441 1442 1442 1443 1442 1442 1442 1441 1439 1439 1438 1439 1438 1438 1438 1437 1437 1436 1436 1436 1436 1436 1436 1437 1437 1438 1438
1424 1424 1425 1426 1427 1428 1429 1429 1430 1431 1432 1433 1433 1433 1434 1434 1434 1435 1435 1435 1435 1435 1435 1434 1432 1432 1431 1431 1431 1430 1429 1429 1429 1429 1429 1429 1429 1429 1430 1430 1431 1432 1432
1422 1421 1421 1422 1423 1423 1424 1424 1424 1425 1426 1427 1427 1427 1427 1427 1427 1428 1428 1428 1428 1428 1427 1426 1425 1425 1424 1423 1423 1423 1423 1422 1422 1422 1422 1422 1422 1422 1423 1424 1425 1426 1427
1420 1419 1419 1419 1419 1419 1419 1419 1420 1421 1421 1421 1421 1421 1420 1420 1420 1421 1421 1421 1421 1421 1420 1419 1418 1417 1416 1417 1416 1416 1415 1415 1414 1415 1416 1416 1416 1416 1417 1418 1419 1420 1422
1419 1418 1418 1417 1416 1416 1416 1416 1416 1416 1416 1416 1415 1415 1414 1414 1414 1414 1414 1414 1414 1413 1413 1412 1411 1409 1409 1409 1409 1409 1408 1407 1407 1407 1409 1408 1409 1410 1411 1412 1413 1415 1416
1418 1417 1416 1415 1414 1414 1413 1413 1412 1412 1412 1411 1410 1409 1408 1408 1408 1407 1407 1407 1406 1406 1406 1405 1405 1403 1403 1403 1403 1403 1402 1401 1401 1401 1403 1403 1403 1404 1405 1407 1409 1410 1412
1417 1416 1414 1413 1412 1411 1410 1409 1409 1408 1407 1406 1406 1404 1403 1402 1401 1401 1401 1400 1399 1398 1399 1399 1398 1397 1396 1396 1396 1396 1395 1395 1394 1394 1396 1397 1397 1399 1400 1402 1404 1406 1408
1416 1414 1412 1411 1409 1408 1407 1406 1405 1404 1403 1402 1401 1400 1398 1397 1396 1395 1395 1394 1392 1391 1391 1391 1390 1390 1389 1389 1388 1389 1389 1389 1388 1389 1390 1392 1392 1394 1396 1398 1400 1402 1404